User: anonymous   Login
Location: Newark
(40.7360°N, 74.1730°W)
Time: 04:23:20
(UTC-04:00)
Language:

ISS - Orbit

View from above orbital plane
View from above orbital plane
View from above satellite
View from above satellite

Ground track
Ground track

The orbit data is extracted from the following two-line orbital elements,

1 25544U 98067A   14305.01902668  .00019904  00000-0  34541-3 0  3330
2 25544 051.6447 141.2938 0003713 351.2571 168.8309 15.50842278912554
Epoch (UTC): 01 November 2014 00:27:23
Eccentricity: 0.0003713
inclination: 51.6447°
perigee height: 412 km
apogee height: 417 km
right ascension of ascending node: 141.2938°
argument of perigee: 351.2571°
revolutions per day: 15.50842278
mean anomaly at epoch: 168.8309°
orbit number at epoch: 91255

The dashed part of the orbit path shows where the satellite is in the earth's shadow,  

DLR